FENGYUN 1C DEB

Satellite information

Favourite Embed

Satellite Type and Status

DEBRISIN ORBIT

Key statistics

Satellite FENGYUN 1C DEB at a glance.

Uptime

9617

Days in orbit

Revolutions

≈ 14.6

Per day

Orbit

SSO

Sun Synchronous Orbit

Inclination

99.0

Latest

Satellite identification and parameters

Extended collection of information and parameters for FENGYUN 1C DEB.

Object identification

Identified? True

Debris? True

Object name: FENGYUN 1C DEB

International designator: 1999-025CLR

Object number (NORAD): 31914

Object ID (CCSDS): 31914

Country: PEOPLES REPUBLIC OF CHINA (PRC)

Current information (Y/N): Y

RCS size: SMALL

Orbital parameters

Period: 98.939 minutes

Inclination: 99.0394 deg

SMA: 7086.053 km

Apoapsis: 837.702 km

Periapsis: 578.133 km

RAAN: 103.285 deg

Eccentricy: 0.01831555

Argument of periapsis: 7.1122 deg

Mean anomaly: 353.2607 deg

Mean motion: 14.55446384 rev/day

Mean motion (dot): 0.00001389 rev/day2

B* drag term: 0.00026687631 1/REarth

Two-line elements (TLE)

Creation date: Sept. 5, 2025, 7:38 p.m.

Reference frame: TEME

Reference center: EARTH

Epoch: Sept. 5, 2025, 7:45 a.m. UTC

TLE line 0: 0 FENGYUN 1C DEB

TLE line 1: 1 31914U 99025CLR 25248.32358968 .00001389 00000-0 26688-3 0 9992

TLE line 2: 2 31914 99.0394 103.2850 0183155 7.1122 353.2607 14.55446384670417

Live tracking on map

Real-time ground track for satellite FENGYUN 1C DEB.

In-orbit conjunctions

A list of the most updated potential collisions computed for object FENGYUN 1C DEB.

Target Orbit TCA Probability of collision Miss distance Type
RUBIN 8/PSLV SSO 2024-11-11 21:30:33 0.000148505 473.0 (m) PAYLOAD
CZ-6A DEB LEO 2024-10-31 05:53:29 0.0001208688 258.0 (m) DEBRIS

Associated space launch

Chinese polar orbiting meteorological satellite

FENGYUN 1C DEB was lifted into orbit during the mission ‘Long March 4B | Feng Yun 1C’, on board a Long March 4B space rocket.

The launch took place on May 10, 1999, 1:33 a.m. from Launch Complex 7.

For more information about the launch, click the button.

Launch to space Long March 4B | Feng Yun 1C
Long March 4B | Feng Yun 1C

Agency: N/A

Status: Launch Successful

Launch date: May 10, 1999, 1:33 a.m. UTC

Rocket: Long March 4B

Launch pad: Launch Complex 7

Location: Taiyuan Satellite Launch Center, People's Republic of China

...

Latest news about this satellite

There are no fresh news available about this satellite. Check back as we update our databases every day.


Newsletter sign-up

Weekly statistics, charts and insights to help you stay on top of the space industry.